{"data":{"norad_id":68448,"intl_designator":"2026-067AJ","name":"HAWK-14A","alt_names":[],"object_type":"PAYLOAD","status":"ACTIVE","operator":null,"country":"US","launch_date":"2026-03-30","launch_site_code":"AFWTR","launch_vehicle":null,"mission":null,"orbit_class":"UNKNOWN","rcs_meters":null,"size_class":null,"mass_kg":null,"dimensions":null,"purposes":[],"wikipedia_slug":null,"has_3d_model":false,"image_url":null,"decayed_at":null,"tle_current":{"epoch":"2026-09-20T02:27:46.755072Z","epoch_age_seconds":103522,"freshness":"FRESH","line1":"1 68448U 26067AJ  26263.10262448  .00003089  00000+0  15139-3 0  9998","line2":"2 68448  97.4716 220.4609 0005190 101.6118 258.5699 15.18877202 26342","mean_motion":15.18877202,"eccentricity":0.000519,"inclination_deg":97.4716,"raan_deg":220.4609,"arg_perigee_deg":101.6118,"mean_anomaly_deg":258.5699,"bstar":0.00015139,"rev_number":2634,"period_min":94.806874321628,"perigee_km":505.6582080293,"apogee_km":512.80729783284,"semimajor_km":6887.3697529311,"source":"CELESTRAK","updated_at":"2026-09-20T09:00:24.208027Z"}}}